�N����,����,�~����,�C��,���x,�C��,����,���ϕ���,�ő�u�ԕ���,�ő厞����,���˗�,�I�_���x,�n�����x,�ő啗���N��,DTYPE
"23/06/12","00:10",0.0,21.3,93.1,1004.3,296.0,1.0,1.2,318.6,0.00,20.2,20.7,"00:00:56",1
"23/06/12","00:20",0.0,21.2,93.2,1004.1,307.8,1.0,1.3,318.6,0.00,20.1,20.7,"00:12:40",1
"23/06/12","00:30",0.0,21.0,93.3,1003.8,302.4,0.8,1.2,312.6,0.00,19.9,20.7,"00:28:48",1
"23/06/12","00:40",0.0,21.1,93.4,1004.3,312.0,1.2,1.7,327.7,0.00,20.0,20.7,"00:35:28",1
"23/06/12","00:50",0.0,21.1,93.5,1004.1,320.5,1.3,2.2,312.8,0.00,20.1,20.7,"00:44:32",1
"23/06/12","01:00",0.0,21.2,93.5,1003.8,314.6,1.7,2.5,324.0,0.00,20.1,20.7,"00:55:20",1
"23/06/12","01:10",0.0,21.1,93.6,1003.8,324.7,0.8,1.6,337.3,0.00,20.1,20.7,"01:00:40",1
"23/06/12","01:20",0.0,21.1,93.6,1003.8,314.9,0.7,1.2,270.7,0.00,20.1,20.6,"01:10:08",1
"23/06/12","01:30",0.0,21.1,93.7,1003.8,313.7,1.0,1.9,323.5,0.00,20.1,20.6,"01:22:48",1
"23/06/12","01:40",0.0,21.1,93.9,1004.1,309.9,1.1,1.6,327.7,0.00,20.1,20.6,"01:30:48",1
"23/06/12","01:50",0.0,21.0,93.9,1003.6,288.8,0.7,1.2,319.9,0.00,20.0,20.6,"01:40:32",1
"23/06/12","02:00",0.0,21.0,94.0,1003.4,262.3,0.7,1.1,247.6,0.00,20.0,20.7,"01:52:08",1
"23/06/12","02:10",0.0,21.0,94.1,1003.4,295.0,0.8,1.4,309.6,0.00,20.1,20.6,"02:06:48",1
"23/06/12","02:20",0.0,21.0,94.2,1003.8,277.3,0.8,1.2,258.6,0.00,20.1,20.7,"02:15:52",1
"23/06/12","02:30",0.0,20.9,94.3,1003.6,314.9,1.2,2.1,329.0,0.00,20.0,20.6,"02:25:36",1
"23/06/12","02:40",0.0,20.9,94.4,1003.4,320.6,0.8,1.2,326.4,0.00,20.0,20.5,"02:39:36",1
"23/06/12","02:50",0.0,20.9,94.4,1002.9,308.9,1.0,1.6,298.6,0.00,20.0,20.6,"02:46:24",1
"23/06/12","03:00",0.0,20.7,94.6,1003.4,288.3,0.7,1.2,267.5,0.00,19.8,20.6,"02:59:28",1
"23/06/12","03:10",0.0,20.7,94.7,1002.6,291.2,1.0,1.6,306.9,0.00,19.9,20.6,"03:04:56",1
"23/06/12","03:20",0.0,20.7,94.8,1002.9,306.5,1.1,1.4,319.9,0.00,19.9,20.6,"03:12:40",1
"23/06/12","03:30",0.0,20.7,94.9,1002.6,299.0,1.0,1.4,305.1,0.00,19.9,20.7,"03:23:52",1
"23/06/12","03:40",0.0,20.7,95.0,1002.4,281.1,0.8,1.4,256.4,0.00,19.9,20.6,"03:36:16",1
"23/06/12","03:50",0.0,20.7,95.1,1002.6,287.5,0.8,1.3,263.9,0.00,19.9,20.5,"03:46:48",1
"23/06/12","04:00",0.0,20.7,95.2,1002.4,302.8,0.6,1.0,311.5,0.00,19.9,20.7,"03:54:56",1
"23/06/12","04:10",0.0,20.7,95.2,1002.4,319.0,0.7,0.9,319.7,0.00,19.9,20.6,"04:00:08",1
"23/06/12","04:20",0.2,20.8,95.3,1002.4,281.1,0.8,1.2,329.2,0.00,20.1,20.5,"04:19:12",1
"23/06/12","04:30",0.2,20.8,95.4,1002.2,303.4,0.8,1.2,335.0,0.00,20.1,20.6,"04:24:16",1
"23/06/12","04:40",0.2,20.7,95.4,1002.6,314.5,0.6,1.2,311.8,0.00,20.0,20.4,"04:38:16",1
"23/06/12","04:50",0.0,20.6,95.5,1002.4,321.1,1.1,2.1,334.7,0.00,19.9,20.6,"04:49:44",1
"23/06/12","05:00",0.0,20.6,95.6,1002.4,334.0,1.8,3.7,340.7,0.00,19.9,20.4,"04:52:56",1
"23/06/12","05:10",0.0,20.5,95.7,1002.4,341.8,1.2,2.0,343.7,0.00,19.8,20.4,"05:01:44",1
"23/06/12","05:20",0.0,20.5,95.8,1002.2,334.4,1.3,2.1,340.2,0.00,19.8,20.6,"05:13:36",1
"23/06/12","05:30",0.0,20.5,95.8,1002.4,314.8,1.1,1.7,328.8,0.00,19.8,20.3,"05:20:32",1
"23/06/12","05:40",0.2,20.5,96.0,1002.6,316.5,1.3,2.7,313.2,0.00,19.9,20.5,"05:38:48",1
"23/06/12","05:50",0.0,20.6,96.0,1002.9,326.0,1.3,1.9,319.3,0.00,20.0,20.4,"05:40:08",1
"23/06/12","06:00",0.0,20.6,96.0,1002.6,345.9,0.8,1.4,345.5,0.00,20.0,20.4,"05:50:32",1
"23/06/12","06:10",0.2,20.7,96.1,1002.4,353.7,0.7,1.1,21.2,0.00,20.1,20.3,"06:00:24",1
"23/06/12","06:20",0.0,20.7,96.1,1002.6,268.0,1.0,1.2,252.6,0.00,20.1,20.3,"06:12:56",1
"23/06/12","06:30",0.2,20.6,96.2,1002.6,299.3,0.7,1.4,270.8,0.00,20.0,20.4,"06:22:24",1
"23/06/12","06:40",0.0,20.7,96.2,1002.9,287.1,0.5,1.0,264.4,0.00,20.1,20.4,"06:37:52",1
"23/06/12","06:50",0.2,20.8,96.3,1002.4,309.9,0.7,1.3,319.9,0.02,20.2,20.5,"06:47:52",1
"23/06/12","07:00",0.0,20.9,96.3,1002.9,329.4,0.8,1.6,313.2,0.02,20.3,20.5,"06:52:16",1
"23/06/12","07:10",0.0,21.0,96.3,1002.9,133.4,0.1,0.5,9.6,0.03,20.4,20.3,"07:04:00",1
"23/06/12","07:20",0.0,21.1,96.3,1002.9,218.2,0.2,1.0,283.8,0.03,20.5,20.5,"07:18:56",1
"23/06/12","07:30",0.0,21.2,96.3,1002.6,320.3,0.8,1.4,332.3,0.04,20.6,20.5,"07:26:08",1
"23/06/12","07:40",0.0,21.2,96.4,1003.1,323.5,1.1,2.0,345.5,0.05,20.6,20.4,"07:33:44",1
"23/06/12","07:50",0.0,21.5,96.4,1002.6,279.1,0.3,1.3,278.6,0.07,20.9,20.4,"07:41:52",1
"23/06/12","08:00",0.0,21.4,96.4,1003.1,262.6,1.1,2.1,260.0,0.07,20.8,20.4,"07:57:12",1
"23/06/12","08:10",0.0,21.6,96.4,1003.1,273.9,0.8,1.7,265.9,0.04,21.0,20.3,"08:08:24",1
"23/06/12","08:20",0.0,21.9,96.5,1003.1,293.9,0.8,1.3,305.6,0.08,21.4,20.6,"08:13:52",1
"23/06/12","08:30",0.0,21.9,96.4,1003.1,310.3,1.2,1.8,326.0,0.08,21.3,20.5,"08:29:04",1
"23/06/12","08:40",0.0,22.3,96.2,1003.1,316.0,0.7,1.6,325.8,0.11,21.7,20.4,"08:30:08",1
"23/06/12","08:50",0.0,22.4,96.1,1003.1,265.9,0.6,1.2,247.8,0.05,21.8,20.2,"08:47:36",1
"23/06/12","09:00",0.0,22.3,96.0,1003.4,243.5,0.6,1.3,243.9,0.06,21.7,20.5,"08:56:00",1
"23/06/12","09:10",0.0,22.7,96.2,1003.1,264.1,0.2,1.1,208.3,0.11,22.1,20.4,"09:00:08",1
"23/06/12","09:20",0.0,23.0,96.2,1002.6,301.7,0.7,1.7,341.9,0.19,22.4,20.2,"09:18:08",1
"23/06/12","09:30",0.0,22.9,96.1,1003.1,330.9,1.6,2.4,344.3,0.23,22.3,20.5,"09:24:24",1
"23/06/12","09:40",0.0,23.2,96.0,1002.9,316.1,1.2,2.1,319.6,0.24,22.6,20.4,"09:36:08",1
"23/06/12","09:50",0.0,23.6,95.7,1002.9,258.6,0.8,1.9,254.1,0.22,22.9,20.5,"09:41:52",1
"23/06/12","10:00",0.0,23.5,95.5,1003.1,264.4,1.0,2.2,246.9,0.21,22.8,20.6,"09:58:32",1
"23/06/12","10:10",0.0,23.8,95.2,1003.1,245.7,0.8,2.1,263.2,0.20,23.0,20.4,"10:01:28",1
"23/06/12","10:20",0.0,23.7,94.6,1002.9,251.4,0.7,1.8,261.7,0.19,22.8,20.8,"10:11:12",1
"23/06/12","10:30",0.0,24.0,93.9,1002.6,219.0,0.3,1.0,257.5,0.17,23.0,20.7,"10:20:56",1
"23/06/12","10:40",0.0,23.9,93.6,1002.4,326.2,0.6,1.4,342.2,0.13,22.8,20.6,"10:33:44",1
"23/06/12","10:50",0.0,24.0,93.2,1002.2,14.1,0.3,0.9,334.7,0.07,22.9,20.7,"10:40:08",1
"23/06/12","11:00",0.0,23.8,92.7,1001.9,150.5,0.8,2.1,108.3,0.09,22.6,20.7,"10:57:36",1
"23/06/12","11:10",0.0,23.9,91.8,1002.4,175.1,0.7,1.3,112.0,0.09,22.5,20.6,"11:05:28",1
"23/06/12","11:20",0.0,23.8,90.9,1002.2,192.8,0.8,2.1,200.5,0.08,22.3,20.7,"11:19:12",1
"23/06/12","11:30",0.0,23.9,90.3,1002.4,180.7,0.5,1.4,160.2,0.04,22.3,20.7,"11:21:20",1
"23/06/12","11:40",0.0,24.0,89.8,1001.7,302.7,0.3,1.0,3.0,0.04,22.3,20.8,"11:38:32",1
"23/06/12","11:50",0.0,24.2,88.9,1001.5,7.2,0.6,1.4,12.6,0.08,22.3,20.8,"11:43:12",1
"23/06/12","12:00",0.0,24.4,88.1,1001.7,34.9,0.5,1.2,64.3,0.08,22.3,20.7,"11:51:36",1
"23/06/12","12:10",0.0,24.6,87.2,1001.5,321.6,0.3,1.2,345.7,0.07,22.4,20.8,"12:06:24",1
"23/06/12","12:20",0.0,24.7,86.4,1001.5,137.7,0.5,1.2,147.9,0.08,22.3,20.7,"12:12:48",1
"23/06/12","12:30",0.0,24.7,85.8,1001.2,158.9,0.6,1.8,133.1,0.08,22.2,20.7,"12:25:20",1
"23/06/12","12:40",0.0,24.7,85.4,1001.2,216.9,0.6,1.2,126.2,0.06,22.1,20.9,"12:30:56",1
"23/06/12","12:50",0.0,24.7,85.0,1001.2,26.2,0.5,1.2,78.4,0.05,22.0,20.8,"12:47:52",1
"23/06/12","13:00",0.0,24.8,84.8,1001.0,11.1,0.7,1.6,7.4,0.07,22.1,20.9,"12:53:44",1
"23/06/12","13:10",0.0,25.0,84.3,1001.2,328.5,0.6,1.4,352.3,0.10,22.2,21.0,"13:08:24",1
"23/06/12","13:20",0.0,25.2,83.7,1000.5,343.4,0.6,1.6,5.2,0.10,22.3,20.7,"13:17:12",1
"23/06/12","13:30",0.0,25.2,82.8,1001.0,359.2,0.6,1.7,350.2,0.09,22.1,20.9,"13:29:44",1
"23/06/12","13:40",0.0,25.2,82.4,1000.5,4.4,0.7,1.7,349.7,0.07,22.0,20.8,"13:31:04",1
"23/06/12","13:50",0.0,25.2,82.7,1000.0,131.5,0.5,1.8,161.5,0.08,22.1,20.9,"13:47:04",1
"23/06/12","14:00",0.0,25.0,82.9,1000.0,58.5,0.5,1.8,89.0,0.07,21.9,20.9,"13:57:12",1
"23/06/12","14:10",0.0,25.3,82.9,1000.0,340.1,0.5,1.3,336.4,0.08,22.2,21.1,"14:06:08",1
"23/06/12","14:20",0.0,25.1,82.6,1000.0,13.1,0.6,1.8,348.3,0.08,22.0,21.0,"14:17:52",1
"23/06/12","14:30",0.0,25.1,82.3,999.8,16.8,0.7,1.7,358.4,0.04,21.9,21.0,"14:21:28",1
"23/06/12","14:40",0.0,25.0,82.3,1000.0,351.1,0.8,2.6,346.4,0.05,21.8,20.8,"14:39:44",1
"23/06/12","14:50",0.0,24.9,82.9,1000.0,356.4,0.8,2.8,350.3,0.02,21.8,20.9,"14:41:28",1
"23/06/12","15:00",0.0,24.9,83.7,1000.0,94.0,0.5,1.3,113.1,0.06,22.0,21.1,"14:52:48",1
"23/06/12","15:10",0.0,24.7,83.7,1000.3,74.8,0.6,1.7,116.6,0.05,21.8,21.1,"15:07:44",1
"23/06/12","15:20",0.0,25.0,83.6,1000.0,1.7,0.6,1.4,354.2,0.05,22.1,21.0,"15:18:24",1
"23/06/12","15:30",0.0,25.1,83.6,999.6,26.9,0.5,1.1,46.2,0.06,22.2,20.9,"15:23:36",1
"23/06/12","15:40",0.0,24.8,83.3,999.3,92.7,0.7,2.7,108.7,0.06,21.8,21.0,"15:34:08",1
"23/06/12","15:50",0.0,24.9,83.0,1000.0,61.8,0.6,1.4,84.6,0.05,21.9,21.1,"15:40:16",1
"23/06/12","16:00",0.0,25.1,83.1,999.8,339.0,1.1,1.9,343.0,0.03,22.1,21.1,"15:56:40",1
"23/06/12","16:10",0.0,24.7,83.5,1000.0,309.0,1.0,2.2,323.1,0.02,21.8,21.2,"16:02:16",1
"23/06/12","16:20",0.0,24.8,84.4,999.6,192.0,0.7,1.4,207.6,0.05,22.0,21.1,"16:16:24",1
"23/06/12","16:30",0.0,24.7,84.1,999.8,199.5,0.8,2.0,199.1,0.06,21.9,21.1,"16:27:52",1
"23/06/12","16:40",0.0,24.9,83.1,999.8,212.9,1.5,3.1,198.5,0.08,21.9,21.2,"16:37:04",1
"23/06/12","16:50",0.0,25.0,81.9,1000.0,198.7,0.8,1.9,221.8,0.06,21.7,21.1,"16:43:20",1
"23/06/12","17:00",0.0,24.9,81.6,999.6,139.2,0.7,1.3,130.8,0.04,21.6,21.0,"16:53:28",1
"23/06/12","17:10",0.0,24.8,81.7,999.3,202.7,0.8,1.9,151.6,0.04,21.5,21.1,"17:02:56",1
"23/06/12","17:20",0.0,24.7,81.7,999.3,217.8,0.5,1.3,205.5,0.03,21.4,21.2,"17:18:24",1
"23/06/12","17:30",0.0,24.8,81.9,999.3,233.9,0.6,1.7,216.6,0.03,21.5,21.1,"17:20:32",1
"23/06/12","17:40",0.0,25.0,82.9,999.3,352.9,0.6,1.2,357.1,0.02,21.9,21.2,"17:35:04",1
"23/06/12","17:50",0.0,24.8,84.1,998.9,319.3,0.7,1.1,354.9,0.01,22.0,21.1,"17:40:24",1
"23/06/12","18:00",0.0,24.6,84.9,999.1,319.3,0.6,1.4,347.5,0.00,21.9,21.2,"17:59:04",1
"23/06/12","18:10",0.0,24.3,85.2,999.3,342.8,0.8,1.4,331.2,0.00,21.7,21.1,"18:00:32",1
"23/06/12","18:20",0.0,24.3,85.4,999.6,295.0,0.6,1.3,303.4,0.00,21.7,21.2,"18:16:00",1
"23/06/12","18:30",0.0,24.2,85.6,999.1,349.4,0.5,1.7,344.3,0.00,21.7,21.1,"18:24:48",1
"23/06/12","18:40",0.0,24.1,85.7,999.3,9.5,0.3,1.1,310.2,0.00,21.6,21.0,"18:30:08",1
"23/06/12","18:50",0.0,23.9,85.6,999.3,342.0,0.6,1.6,342.2,0.00,21.4,21.2,"18:49:52",1
"23/06/12","19:00",0.0,23.7,85.4,999.3,53.6,0.6,1.4,113.2,0.00,21.1,21.2,"18:56:32",1
"23/06/12","19:10",0.0,23.7,85.3,999.3,18.5,0.2,1.1,317.6,0.00,21.1,21.1,"19:05:44",1
"23/06/12","19:20",0.0,23.5,85.3,999.6,296.8,0.2,0.6,129.0,0.00,20.9,21.2,"19:10:08",1
"23/06/12","19:30",0.0,23.3,85.5,999.6,314.0,0.6,1.3,312.5,0.00,20.8,21.2,"19:21:28",1
"23/06/12","19:40",0.0,23.2,85.9,999.3,347.6,0.5,1.2,344.3,0.00,20.7,21.3,"19:35:36",1
"23/06/12","19:50",0.0,23.1,86.5,999.8,309.5,1.1,2.0,315.2,0.00,20.8,21.1,"19:49:52",1
"23/06/12","20:00",0.0,22.9,87.4,999.6,317.4,1.5,2.6,317.0,0.00,20.7,21.1,"19:53:28",1
"23/06/12","20:10",0.0,22.7,87.9,999.3,355.7,0.6,1.3,339.8,0.00,20.6,21.3,"20:01:20",1
"23/06/12","20:20",0.0,22.5,88.4,999.6,304.5,0.5,1.2,341.8,0.00,20.5,21.0,"20:10:16",1
"23/06/12","20:30",0.0,22.3,88.8,998.9,271.6,0.3,0.9,270.7,0.00,20.4,20.9,"20:29:28",1
"23/06/12","20:40",0.0,22.5,89.3,999.1,293.7,1.3,3.1,348.9,0.00,20.7,21.1,"20:38:48",1
"23/06/12","20:50",0.0,22.2,89.7,999.3,295.7,1.5,2.5,323.1,0.00,20.5,21.1,"20:41:52",1
"23/06/12","21:00",0.0,22.1,90.0,999.3,310.6,1.1,1.7,304.3,0.00,20.4,21.0,"20:58:40",1
"23/06/12","21:10",0.0,22.1,90.3,998.6,52.4,0.3,1.2,317.4,0.00,20.5,21.2,"21:00:08",1
"23/06/12","21:20",0.0,22.0,90.4,999.1,320.1,1.0,2.0,312.3,0.00,20.4,21.0,"21:14:32",1
"23/06/12","21:30",0.0,21.9,90.7,999.1,276.9,0.7,1.2,251.9,0.00,20.4,20.9,"21:24:56",1
"23/06/12","21:40",0.0,21.9,90.9,999.3,319.3,1.2,1.8,317.9,0.00,20.4,20.8,"21:33:20",1
"23/06/12","21:50",0.0,21.7,91.1,998.9,299.2,0.5,1.3,301.2,0.00,20.2,20.9,"21:41:04",1
"23/06/12","22:00",0.0,21.6,91.3,998.9,336.1,0.3,1.0,276.6,0.00,20.2,20.9,"21:50:02",1
"23/06/12","22:10",0.0,21.7,91.7,1000.0,318.4,2.6,4.5,337.8,0.00,20.3,20.9,"22:06:16",1
"23/06/12","22:20",0.0,21.7,91.6,1000.3,316.5,2.2,3.5,270.5,0.00,20.3,20.9,"22:13:04",1
"23/06/12","22:30",0.0,21.8,91.5,1000.0,332.0,0.8,1.7,320.9,0.00,20.4,20.8,"22:20:24",1
"23/06/12","22:40",0.0,21.7,91.5,999.6,2.5,0.3,0.8,321.3,0.00,20.3,20.9,"22:34:48",1
"23/06/12","22:50",0.0,21.6,91.5,999.1,324.3,1.1,1.8,323.7,0.00,20.2,20.9,"22:48:24",1
"23/06/12","23:00",0.0,21.5,91.6,999.1,299.5,1.3,2.2,320.3,0.00,20.1,21.0,"22:58:56",1
"23/06/12","23:10",0.0,21.4,91.7,998.9,313.4,1.3,2.0,323.8,0.00,20.0,21.0,"23:05:28",1
"23/06/12","23:20",0.0,21.3,91.7,999.6,315.9,1.3,2.4,327.2,0.00,19.9,20.9,"23:15:04",1
"23/06/12","23:30",0.0,21.2,91.8,999.8,290.8,1.2,1.8,266.2,0.00,19.9,20.8,"23:25:36",1
"23/06/12","23:40",0.0,21.2,91.8,999.1,346.7,0.7,1.9,338.3,0.00,19.9,21.0,"23:32:48",1
"23/06/12","23:50",0.0,21.1,91.8,999.3,286.5,1.2,2.5,332.9,0.00,19.8,20.8,"23:49:20",1
"23/06/12","24:00",0.0,21.0,91.9,999.1,321.1,1.3,2.6,330.2,0.00,19.7,20.7,"23:54:40",1
